This is the latest recevied weather packets stored in our database for station/object N7CW. If no packets are shown the sender has not sent any weather packets the latest 10 day(s).
| Time | Temp. | Humidity | Pressure | Rain* | Wind** | Luminosity | Snow |
|---|---|---|---|---|---|---|---|
| 1777686351 | 20° C | 21% | 1015.3 hPa | 0 mm | - | 23 W/m² | - |
| 1777686048 | 20° C | 21% | 1015.3 hPa | 0 mm | - | 27 W/m² | - |
| 1777685743 | 20° C | 20% | 1015.3 hPa | 0 mm | - | 35 W/m² | - |
| 1777685440 | 20° C | 20% | 1015.2 hPa | 0 mm | - | 42 W/m² | - |
| 1777685137 | 19.44° C | 21% | 1015.2 hPa | 0 mm | - | 47 W/m² | - |
| 1777684835 | 19.44° C | 21% | 1015.2 hPa | 0 mm | - | 52 W/m² | - |
| 1777684532 | 19.44° C | 21% | 1015.2 hPa | 0 mm | - | 77 W/m² | - |
| 1777684228 | 19.44° C | 21% | 1015.1 hPa | 0 mm | - | 54 W/m² | - |
| 1777683926 | 19.44° C | 21% | 1014.9 hPa | 0 mm | - | 53 W/m² | - |
| 1777683622 | 19.44° C | 21% | 1015.2 hPa | 0 mm | - | 54 W/m² | - |
| 1777683320 | 19.44° C | 21% | 1014.9 hPa | 0 mm | - | 53 W/m² | - |
| 1777683017 | 19.44° C | 21% | 1014.8 hPa | 0 mm | - | 55 W/m² | - |
| 1777682712 | 19.44° C | 21% | 1014.8 hPa | 0 mm | - | 55 W/m² | - |
| 1777682410 | 19.44° C | 21% | 1014.6 hPa | 0 mm | - | 58 W/m² | - |
| 1777682108 | 20° C | 21% | 1014.7 hPa | 0 mm | - | 65 W/m² | - |
| 1777681804 | 20.56° C | 20% | 1014.8 hPa | 0 mm | - | 69 W/m² | - |
| 1777681501 | 20° C | 20% | 1014.8 hPa | 0 mm | - | 213 W/m² | - |
| 1777681198 | 20° C | 21% | 1015.1 hPa | 0 mm | - | 190 W/m² | - |
| 1777680895 | 20° C | 20% | 1014.8 hPa | 0 mm | - | 112 W/m² | - |
| 1777680593 | 20.56° C | 20% | 1014.9 hPa | 0 mm | - | 131 W/m² | - |
| 1777680291 | 20° C | 20% | 1014.8 hPa | 0 mm | - | 213 W/m² | - |
| 1777679987 | 20.56° C | 20% | 1014.8 hPa | 0 mm | - | 132 W/m² | - |
| 1777679683 | 20.56° C | 20% | 1014.6 hPa | 0 mm | - | 162 W/m² | - |
| 1777679378 | 20° C | 21% | 1014.8 hPa | 0 mm | - | 311 W/m² | - |
| 1777679075 | 20° C | 21% | 1014.8 hPa | 0 mm | - | 140 W/m² | - |
* Rain latest hour (hover to see other rain measurements)
** Current wind speed in m/s (hover to see current wind gust speed)